EW2348 Weather Reports


Display with metric or nautical units.
time (UTC)temp
F
wind
direction
speed
MPH
gust
MPH
rain 1hr
in
rain 24hr
in
rain mn
in
humidity
%
barometer
mb
20150901201721 89 133 2.0 8.0 0.00 0.00 0.00 47 1013.8
20150901201621 89 137 2.0 8.0 0.00 0.00 0.00 47 1013.7
20150901201521 88 141 1.0 8.0 0.00 0.00 0.00 49 1013.7
20150901201421 87 143 2.0 8.0 0.00 0.00 0.00 48 1014.0
20150901201321 87 146 3.0 8.0 0.00 0.00 0.00 50 1013.9
20150901201221 86 151 1.0 8.0 0.00 0.00 0.00 49 1013.7
20150901201121 85 158 4.0 8.0 0.00 0.00 0.00 48 1013.7
20150901200921 87 167 7.0 8.0 0.00 0.00 0.00 47 1013.8
20150901200721 87 173 5.0 7.0 0.00 0.00 0.00 48 1013.8
20150901200621 87 173 5.0 7.0 0.00 0.00 0.00 48 1014.0
20150901200521 87 172 5.0 7.0 0.00 0.00 0.00 48 1013.9
20150901200322 87 170 5.0 7.0 0.00 0.00 0.00 48 1013.9
20150901200221 87 160 5.0 7.0 0.00 0.00 0.00 48 1013.8
20150901200121 87 152 5.0 7.0 0.00 0.00 0.00 48 1013.9
20150901195921 87 137 7.0 7.0 0.00 0.00 0.00 47 1013.8
20150901195821 87 130 3.0 7.0 0.00 0.00 0.00 47 1013.8
20150901195721 87 122 3.0 7.0 0.00 0.00 0.00 48 1013.8
20150901195421 87 124 3.0 7.0 0.00 0.00 0.00 50 1013.9
20150901195321 87 125 3.0 9.0 0.00 0.00 0.00 48 1013.8
20150901194721 89 143 2.0 9.0 0.00 0.00 0.00 49 1013.8
20150901194521 87 132 3.0 9.0 0.00 0.00 0.00 50 1013.8
20150901194321 88 107 7.0 9.0 0.00 0.00 0.00 48 1013.9
20150901194221 87 99 4.0 6.0 0.00 0.00 0.00 49 1013.9
20150901194121 87 97 4.0 6.0 0.00 0.00 0.00 48 1013.8
20150901194021 88 90 3.0 5.0 0.00 0.00 0.00 47 1014.0
20150901193922 89 88 2.0 5.0 0.00 0.00 0.00 48 1013.9
20150901193821 87 91 3.0 5.0 0.00 0.00 0.00 49 1013.8
20150901192921 88 111 2.0 7.0 0.00 0.00 0.00 48 1013.9
20150901192721 88 122 1.0 7.0 0.00 0.00 0.00 47 1014.1
20150901192621 87 123 1.0 7.0 0.00 0.00 0.00 49 1014.3
20150901192520 87 123 3.0 7.0 0.00 0.00 0.00 50 1014.2
20150901192221 86 134 1.0 7.0 0.00 0.00 0.00 51 1014.0
20150901192021 86 131 5.0 7.0 0.00 0.00 0.00 50 1014.2
20150901191921 86 126 4.0 7.0 0.00 0.00 0.00 51 1014.1
20150901191821 86 121 5.0 7.0 0.00 0.00 0.00 49 1014.0
20150901191721 86 112 4.0 7.0 0.00 0.00 0.00 48 1014.2
20150901191521 87 100 5.0 7.0 0.00 0.00 0.00 48 1014.1
20150901191422 87 85 2.0 5.0 0.00 0.00 0.00 47 1014.0
20150901191021 88 83 0.0 5.0 0.00 0.00 0.00 48 1014.5
20150901190821 88 84 3.0 5.0 0.00 0.00 0.00 48 1014.2
20150901190721 88 75 3.0 5.0 0.00 0.00 0.00 47 1014.2
20150901190321 87 82 1.0 7.0 0.00 0.00 0.00 48 1014.2
20150901190122 87 94 2.0 7.0 0.00 0.00 0.00 48 1014.2
20150901185721 87 95 1.0 7.0 0.00 0.00 0.00 49 1014.3
20150901185621 86 100 3.0 7.0 0.00 0.00 0.00 50 1014.3
20150901185521 86 99 3.0 6.0 0.00 0.00 0.00 51 1014.2
20150901185321 87 98 4.0 6.0 0.00 0.00 0.00 51 1014.4
20150901185121 87 100 3.0 5.0 0.00 0.00 0.00 53 1014.3
20150901184921 87 105 1.0 5.0 0.00 0.00 0.00 53 1014.2
20150901184520 85 110 3.0 5.0 0.00 0.00 0.00 55 1014.6
20150901184421 85 114 3.0 5.0 0.00 0.00 0.00 55 1014.7
20150901184321 86 117 4.0 5.0 0.00 0.00 0.00 55 1014.3
20150901184221 86 118 4.0 5.0 0.00 0.00 0.00 52 1014.4
20150901184121 87 114 4.0 5.0 0.00 0.00 0.00 57 1014.5
20150901183721 85 107 3.0 5.0 0.00 0.00 0.00 54 1014.4
20150901183621 85 111 3.0 5.0 0.00 0.00 0.00 53 1014.5
20150901183421 86 111 2.0 5.0 0.00 0.00 0.00 49 1014.5
20150901183321 87 114 3.0 5.0 0.00 0.00 0.00 51 1014.4
20150901183221 86 116 2.0 5.0 0.00 0.00 0.00 49 1014.5
20150901183120 86 116 2.0 6.0 0.00 0.00 0.00 51 1014.6
20150901183021 86 115 1.0 6.0 0.00 0.00 0.00 51 1014.4
20150901182921 86 121 3.0 6.0 0.00 0.00 0.00 53 1014.5
20150901182821 86 133 2.0 7.0 0.00 0.00 0.00 54 1014.4
20150901182721 86 143 2.0 7.0 0.00 0.00 0.00 51 1014.4
20150901182621 86 139 1.0 7.0 0.00 0.00 0.00 49 1014.6
20150901182420 85 153 2.0 8.0 0.00 0.00 0.00 50 1014.7
20150901182321 86 145 4.0 8.0 0.00 0.00 0.00 51 1014.5
20150901182221 87 141 3.0 8.0 0.00 0.00 0.00 51 1014.5
20150901181821 87 130 5.0 8.0 0.00 0.00 0.00 52 1014.5
20150901181621 86 117 2.0 8.0 0.00 0.00 0.00 51 1014.6
20150901181522 85 109 5.0 8.0 0.00 0.00 0.00 49 1014.5
20150901181321 87 97 5.0 7.0 0.00 0.00 0.00 50 1014.5
20150901181221 88 93 5.0 6.0 0.00 0.00 0.00 51 1014.5
20150901180921 87 91 1.0 3.0 0.00 0.00 0.00 47 1014.5
20150901180821 87 90 0.0 5.0 0.00 0.00 0.00 48 1014.8
20150901180721 85 90 3.0 5.0 0.00 0.00 0.00 51 1014.7
20150901180621 85 90 3.0 5.0 0.00 0.00 0.00 51 1014.8
20150901180421 85 87 3.0 5.0 0.00 0.00 0.00 51 1014.7
20150901180021 85 107 3.0 7.0 0.00 0.00 0.00 51 1014.7
20150901175922 85 106 3.0 7.0 0.00 0.00 0.00 52 1014.6
20150901175721 85 113 3.0 7.0 0.00 0.00 0.00 52 1014.6
20150901175522 85 128 1.0 7.0 0.00 0.00 0.00 53 1014.7
20150901175421 84 136 1.0 7.0 0.00 0.00 0.00 52 1014.7
20150901175222 85 138 5.0 8.0 0.00 0.00 0.00 52 1014.8
20150901175121 85 141 2.0 8.0 0.00 0.00 0.00 51 1014.8
20150901174823 86 134 4.0 8.0 0.00 0.00 0.00 52 1014.7
20150901174722 85 136 3.0 8.0 0.00 0.00 0.00 52 1014.7
20150901174622 84 129 4.0 8.0 0.00 0.00 0.00 51 1014.7
20150901174521 85 124 5.0 8.0 0.00 0.00 0.00 52 1014.7
20150901174322 85 117 5.0 7.0 0.00 0.00 0.00 52 1014.7
20150901174021 85 94 3.0 5.0 0.00 0.00 0.00 49 1014.8
20150901173921 86 95 4.0 5.0 0.00 0.00 0.00 48 1014.7
20150901173821 87 97 3.0 5.0 0.00 0.00 0.00 48 1014.7
20150901173521 87 83 1.0 5.0 0.00 0.00 0.00 48 1014.7
20150901173321 86 90 2.0 5.0 0.00 0.00 0.00 50 1014.7
20150901173221 87 90 3.0 5.0 0.00 0.00 0.00 53 1014.8
20150901173121 88 90 1.0 5.0 0.00 0.00 0.00 52 1014.7
20150901173021 87 87 1.0 5.0 0.00 0.00 0.00 54 1014.7
20150901172921 87 86 2.0 5.0 0.00 0.00 0.00 53 1014.8
20150901172821 87 81 1.0 5.0 0.00 0.00 0.00 54 1014.9
20150901172721 85 78 2.0 5.0 0.00 0.00 0.00 54 1015.0
20150901172621 85 82 3.0 5.0 0.00 0.00 0.00 51 1014.9
20150901172421 84 85 2.0 5.0 0.00 0.00 0.00 52 1015.0
20150901172321 86 82 3.0 5.0 0.00 0.00 0.00 54 1015.1
20150901172221 86 86 3.0 5.0 0.00 0.00 0.00 54 1015.1
20150901172121 87 87 3.0 5.0 0.00 0.00 0.00 54 1014.9
20150901172021 87 98 2.0 6.0 0.00 0.00 0.00 52 1014.9
20150901171721 86 107 2.0 6.0 0.00 0.00 0.00 57 1015.0
20150901171621 85 111 1.0 6.0 0.00 0.00 0.00 56 1015.1
20150901171521 84 116 1.0 6.0 0.00 0.00 0.00 60 1015.2
20150901171321 83 111 1.0 6.0 0.00 0.00 0.00 59 1015.0
20150901171221 82 106 1.0 6.0 0.00 0.00 0.00 58 1015.1
20150901171121 83 103 3.0 6.0 0.00 0.00 0.00 59 1015.3
20150901170922 83 87 3.0 5.0 0.00 0.00 0.00 58 1015.2
20150901170821 83 83 3.0 5.0 0.00 0.00 0.00 58 1015.1
20150901170621 85 67 3.0 5.0 0.00 0.00 0.00 56 1015.2
20150901170521 83 65 1.0 5.0 0.00 0.00 0.00 55 1015.1
20150901170421 84 71 3.0 5.0 0.00 0.00 0.00 56 1015.1
20150901170321 85 56 3.0 5.0 0.00 0.00 0.00 54 1015.4
20150901170121 86 40 1.0 5.0 0.00 0.00 0.00 53 1015.2
20150901165921 85 73 1.0 5.0 0.00 0.00 0.00 55 1015.2
20150901165721 84 82 2.0 5.0 0.00 0.00 0.00 54 1015.3
20150901165521 86 99 3.0 6.0 0.00 0.00 0.00 53 1015.4
20150901165421 86 100 0.0 6.0 0.00 0.00 0.00 53 1015.3
20150901165321 85 95 0.0 6.0 0.00 0.00 0.00 54 1015.4
20150901165121 84 98 1.0 6.0 0.00 0.00 0.00 56 1015.4
20150901165021 83 103 2.0 6.0 0.00 0.00 0.00 56 1015.4
20150901164921 83 105 2.0 6.0 0.00 0.00 0.00 55 1015.5
20150901164221 86 332 1.0 4.0 0.00 0.00 0.00 57 1015.2
20150901164021 85 340 0.0 4.0 0.00 0.00 0.00 57 1015.2
20150901163820 85 12 2.0 4.0 0.00 0.00 0.00 57 1015.4
20150901163621 85 56 2.0 5.0 0.00 0.00 0.00 56 1015.4
20150901163421 84 78 0.0 5.0 0.00 0.00 0.00 59 1015.5
20150901163321 85 77 1.0 5.0 0.00 0.00 0.00 60 1015.4
20150901163221 85 76 2.0 5.0 0.00 0.00 0.00 58 1015.4
20150901163122 85 77 1.0 5.0 0.00 0.00 0.00 57 1015.3
20150901162921 84 88 1.0 5.0 0.00 0.00 0.00 62 1015.5
20150901162821 83 90 3.0 5.0 0.00 0.00 0.00 59 1015.3
20150901162720 84 94 5.0 5.0 0.00 0.00 0.00 58 1015.3
20150901162521 85 80 2.0 3.0 0.00 0.00 0.00 60 1015.6
20150901162421 85 77 1.0 3.0 0.00 0.00 0.00 59 1015.5
20150901162321 85 68 2.0 3.0 0.00 0.00 0.00 60 1015.4
20150901162121 84 354 1.0 3.0 0.00 0.00 0.00 62 1015.5
20150901162020 85 332 2.0 3.0 0.00 0.00 0.00 62 1015.5
20150901161921 85 333 1.0 3.0 0.00 0.00 0.00 62 1015.5
20150901161821 85 332 1.0 3.0 0.00 0.00 0.00 62 1015.5
20150901161721 85 336 1.0 3.0 0.00 0.00 0.00 65 1015.3
20150901161620 85 336 1.0 3.0 0.00 0.00 0.00 65 1015.5
20150901161521 84 337 0.0 3.0 0.00 0.00 0.00 64 1015.5
20150901161421 83 340 1.0 3.0 0.00 0.00 0.00 64 1015.5
20150901161221 83 356 2.0 3.0 0.00 0.00 0.00 63 1015.5
20150901160721 82 1 1.0 2.0 0.00 0.00 0.00 71 1015.6
20150901160621 82 1 1.0 2.0 0.00 0.00 0.00 71 1015.6
20150901160421 82 1 1.0 2.0 0.00 0.00 0.00 71 1015.6
20150901160121 82 4 1.0 2.0 0.00 0.00 0.00 71 1015.9
20150901160020 82 19 1.0 2.0 0.00 0.00 0.00 71 1015.7
20150901155921 82 44 1.0 3.0 0.00 0.00 0.00 71 1015.8
20150901155821 82 59 0.0 3.0 0.00 0.00 0.00 69 1015.7
20150901155721 82 67 0.0 3.0 0.00 0.00 0.00 70 1015.4
20150901155521 82 71 0.0 3.0 0.00 0.00 0.00 69 1015.6
20150901155321 81 79 0.0 3.0 0.00 0.00 0.00 70 1015.5
20150901155221 81 85 1.0 3.0 0.00 0.00 0.00 69 1015.6
20150901155121 80 88 1.0 3.0 0.00 0.00 0.00 69 1015.6
20150901155021 80 90 1.0 3.0 0.00 0.00 0.00 68 1015.7
20150901154922 80 80 1.0 3.0 0.00 0.00 0.00 68 1015.6
20150901154821 80 46 1.0 3.0 0.00 0.00 0.00 68 1015.6
20150901154621 82 327 1.0 3.0 0.00 0.00 0.00 66 1015.7
20150901154520 83 316 1.0 3.0 0.00 0.00 0.00 65 1015.8
20150901154420 82 313 0.0 3.0 0.00 0.00 0.00 65 1015.7
20150901154321 82 323 0.0 3.0 0.00 0.00 0.00 65 1015.7
20150901154120 83 326 1.0 3.0 0.00 0.00 0.00 64 1015.8
20150901154021 83 330 1.0 3.0 0.00 0.00 0.00 64 1015.7
20150901153921 84 338 1.0 3.0 0.00 0.00 0.00 65 1015.7
20150901153821 83 338 0.0 3.0 0.00 0.00 0.00 65 1016.0
20150901153721 83 325 0.0 3.0 0.00 0.00 0.00 64 1015.6
20150901153521 83 294 0.0 3.0 0.00 0.00 0.00 64 1015.7
20150901153421 82 291 0.0 3.0 0.00 0.00 0.00 64 1015.8
20150901153321 82 279 1.0 3.0 0.00 0.00 0.00 65 1015.7
20150901153221 82 268 0.0 3.0 0.00 0.00 0.00 65 1015.9
20150901153121 82 253 0.0 3.0 0.00 0.00 0.00 65 1015.5
20150901152921 82 245 0.0 3.0 0.00 0.00 0.00 64 1015.6
20150901152821 83 246 1.0 3.0 0.00 0.00 0.00 63 1015.5
20150901152721 83 244 1.0 3.0 0.00 0.00 0.00 61 1015.6
20150901152620 85 231 2.0 3.0 0.00 0.00 0.00 59 1015.6
20150901152521 86 149 0.0 2.0 0.00 0.00 0.00 59 1015.8
20150901152421 87 166 0.0 3.0 0.00 0.00 0.00 60 1015.7
20150901152321 85 187 0.0 3.0 0.00 0.00 0.00 59 1015.6
20150901152220 85 343 1.0 3.0 0.00 0.00 0.00 60 1015.8
20150901152120 86 357 1.0 3.0 0.00 0.00 0.00 61 1015.9
20150901152021 85 331 0.0 3.0 0.00 0.00 0.00 64 1015.6
20150901151921 85 328 0.0 3.0 0.00 0.00 0.00 64 1015.6
20150901151721 83 330 1.0 3.0 0.00 0.00 0.00 64 1015.8
20150901151621 84 334 1.0 3.0 0.00 0.00 0.00 63 1015.7
20150901151521 83 323 1.0 3.0 0.00 0.00 0.00 63 1015.7
20150901151421 84 328 2.0 3.0 0.00 0.00 0.00 63 1015.8
20150901151321 83 326 1.0 3.0 0.00 0.00 0.00 63 1015.7
20150901151221 84 315 1.0 3.0 0.00 0.00 0.00 63 1015.8
20150901151021 85 311 1.0 3.0 0.00 0.00 0.00 61 1015.7
20150901150721 85 304 1.0 3.0 0.00 0.00 0.00 66 1015.8
20150901150522 83 311 2.0 3.0 0.00 0.00 0.00 65 1015.5
20150901150421 83 322 0.0 4.0 0.00 0.00 0.00 67 1015.6
20150901150321 83 336 1.0 4.0 0.00 0.00 0.00 66 1015.7
20150901150221 83 355 1.0 4.0 0.00 0.00 0.00 66 1015.8
20150901150123 82 17 0.0 4.0 0.00 0.00 0.00 66 1015.6
20150901145922 82 42 0.0 4.0 0.00 0.00 0.00 67 1015.8
20150901145823 82 45 2.0 4.0 0.00 0.00 0.00 68 1015.7
20150901145720 82 45 1.0 4.0 0.00 0.00 0.00 68 1015.7
20150901145621 81 48 1.0 4.0 0.00 0.00 0.00 68 1015.8
20150901145521 80 50 2.0 4.0 0.00 0.00 0.00 68 1015.9
20150901145421 81 43 2.0 4.0 0.00 0.00 0.00 65 1015.6
20150901145322 81 12 1.0 3.0 0.00 0.00 0.00 66 1015.7
20150901145221 81 341 1.0 3.0 0.00 0.00 0.00 65 1015.9
20150901145021 83 323 1.0 3.0 0.00 0.00 0.00 66 1015.9
20150901144821 82 317 1.0 3.0 0.00 0.00 0.00 65 1015.7
20150901144721 82 321 0.0 3.0 0.00 0.00 0.00 65 1015.8
20150901144621 82 319 2.0 3.0 0.00 0.00 0.00 65 1015.7
20150901144521 82 321 1.0 3.0 0.00 0.00 0.00 65 1015.8
20150901144121 83 314 0.0 3.0 0.00 0.00 0.00 67 1015.7
20150901144021 82 314 0.0 3.0 0.00 0.00 0.00 66 1015.9
20150901143921 84 314 0.0 3.0 0.00 0.00 0.00 67 1015.8
20150901143721 83 311 1.0 3.0 0.00 0.00 0.00 68 1016.0
20150901143621 83 317 0.0 3.0 0.00 0.00 0.00 67 1015.8
20150901143520 81 310 1.0 3.0 0.00 0.00 0.00 66 1015.7
20150901143421 82 320 2.0 3.0 0.00 0.00 0.00 65 1015.7
20150901143120 84 123 0.0 1.0 0.00 0.00 0.00 66 1015.6
20150901142822 83 116 0.0 3.0 0.00 0.00 0.00 64 1015.5
20150901142721 84 117 1.0 3.0 0.00 0.00 0.00 66 1015.7
20150901142621 84 121 0.0 3.0 0.00 0.00 0.00 66 1015.6
20150901142521 83 121 0.0 3.0 0.00 0.00 0.00 65 1015.6
20150901142320 82 124 0.0 3.0 0.00 0.00 0.00 68 1015.8
20150901142221 80 132 0.0 3.0 0.00 0.00 0.00 68 1015.7
20150901142121 80 141 1.0 3.0 0.00 0.00 0.00 66 1015.7
20150901142020 80 155 1.0 3.0 0.00 0.00 0.00 65 1015.8
20150901141921 83 167 1.0 3.0 0.00 0.00 0.00 65 1015.6
20150901141520 82 176 0.0 3.0 0.00 0.00 0.00 72 1015.8
20150901141421 80 176 0.0 3.0 0.00 0.00 0.00 72 1015.5
20150901141321 80 176 1.0 3.0 0.00 0.00 0.00 71 1015.6
20150901141121 80 167 1.0 3.0 0.00 0.00 0.00 68 1015.7
20150901140921 81 135 0.0 1.0 0.00 0.00 0.00 67 1015.7
20150901140720 82 0 0.0 0.0 0.00 0.00 0.00 71 1015.7
20150901140620 82 0 0.0 0.0 0.00 0.00 0.00 71 1015.6
20150901140521 82 0 0.0 0.0 0.00 0.00 0.00 71 1015.6
20150901140421 82 270 0.0 2.0 0.00 0.00 0.00 71 1015.6
20150901140321 82 291 0.0 3.0 0.00 0.00 0.00 71 1015.7
20150901140220 82 293 0.0 3.0 0.00 0.00 0.00 71 1015.6
20150901135821 81 285 0.0 3.0 0.00 0.00 0.00 71 1015.7
20150901135621 80 285 0.0 3.0 0.00 0.00 0.00 73 1015.5
20150901135521 79 285 1.0 3.0 0.00 0.00 0.00 70 1015.7
20150901135421 79 289 1.0 3.0 0.00 0.00 0.00 69 1015.7
20150901135223 80 270 2.0 3.0 0.00 0.00 0.00 67 1015.7
20150901134821 81 0 0.0 0.0 0.00 0.00 0.00 63 1015.7
20150901134721 84 0 0.0 0.0 0.00 0.00 0.00 65 1015.7
20150901134521 84 0 0.0 0.0 0.00 0.00 0.00 65 1015.7
20150901134421 84 0 0.0 0.0 0.00 0.00 0.00 66 1015.7
20150901134220 81 0 0.0 0.0 0.00 0.00 0.00 67 1015.5
20150901134021 81 0 0.0 0.0 0.00 0.00 0.00 67 1015.6
20150901133321 78 0 0.0 0.0 0.00 0.00 0.00 74 1015.7
20150901133221 78 0 0.0 0.0 0.00 0.00 0.00 74 1015.6
20150901133121 77 0 0.0 0.0 0.00 0.00 0.00 73 1015.6
20150901133021 78 0 0.0 0.0 0.00 0.00 0.00 73 1015.7
20150901132920 80 0 0.0 0.0 0.00 0.00 0.00 70 1015.7
20150901132621 80 0 0.0 0.0 0.00 0.00 0.00 73 1015.6
20150901132521 80 0 0.0 0.0 0.00 0.00 0.00 73 1015.7
20150901132221 78 0 0.0 0.0 0.00 0.00 0.00 76 1015.6
20150901132021 76 0 0.0 0.0 0.00 0.00 0.00 77 1015.6
20150901131821 76 0 0.0 0.0 0.00 0.00 0.00 79 1015.6
20150901131721 76 0 0.0 0.0 0.00 0.00 0.00 80 1015.7
20150901131621 76 0 0.0 0.0 0.00 0.00 0.00 81 1015.7
20150901131521 76 0 0.0 0.0 0.00 0.00 0.00 81 1015.7
20150901131421 75 0 0.0 0.0 0.00 0.00 0.00 81 1015.7
20150901131320 75 0 0.0 0.0 0.00 0.00 0.00 81 1015.6
20150901131221 75 0 0.0 0.0 0.00 0.00 0.00 82 1015.7
20150901131121 75 0 0.0 0.0 0.00 0.00 0.00 82 1015.7
20150901131021 74 0 0.0 0.0 0.00 0.00 0.00 82 1015.8
20150901130921 74 0 0.0 0.0 0.00 0.00 0.00 83 1015.8
20150901130820 74 0 0.0 0.0 0.00 0.00 0.00 83 1015.6
20150901130721 74 0 0.0 0.0 0.00 0.00 0.00 83 1015.8
20150901130621 74 0 0.0 0.0 0.00 0.00 0.00 83 1015.6
20150901130521 74 0 0.0 0.0 0.00 0.00 0.00 83 1015.9
20150901130420 74 0 0.0 0.0 0.00 0.00 0.00 83 1015.8
20150901130221 74 0 0.0 0.0 0.00 0.00 0.00 81 1015.7
20150901130121 74 0 0.0 0.0 0.00 0.00 0.00 81 1015.7
20150901130021 74 0 0.0 0.0 0.00 0.00 0.00 80 1015.6
20150901125921 74 0 0.0 0.0 0.00 0.00 0.00 80 1015.6
20150901125820 74 0 0.0 0.0 0.00 0.00 0.00 80 1015.7
20150901125720 74 0 0.0 0.0 0.00 0.00 0.00 80 1015.8
20150901125621 74 0 0.0 0.0 0.00 0.00 0.00 80 1015.9
20150901125221 75 0 0.0 0.0 0.00 0.00 0.00 79 1015.7
20150901125121 75 0 0.0 0.0 0.00 0.00 0.00 77 1015.7
20150901124621 75 0 0.0 0.0 0.00 0.00 0.00 75 1015.7
20150901124521 76 0 0.0 0.0 0.00 0.00 0.00 75 1015.9
20150901124421 77 0 0.0 0.0 0.00 0.00 0.00 74 1015.7
20150901124321 76 0 0.0 0.0 0.00 0.00 0.00 75 1015.9
20150901124221 77 0 0.0 0.0 0.00 0.00 0.00 75 1015.9
20150901124121 77 0 0.0 0.0 0.00 0.00 0.00 76 1015.9
20150901124021 76 0 0.0 0.0 0.00 0.00 0.00 76 1015.7
20150901123921 75 0 0.0 0.0 0.00 0.00 0.00 76 1015.9
20150901123820 75 0 0.0 0.0 0.00 0.00 0.00 77 1016.0
20150901123721 75 0 0.0 0.0 0.00 0.00 0.00 77 1015.7
20150901123621 76 0 0.0 0.0 0.00 0.00 0.00 77 1015.7
20150901123521 76 0 0.0 0.0 0.00 0.00 0.00 78 1015.8
20150901123421 76 0 0.0 0.0 0.00 0.00 0.00 79 1015.6
20150901123321 76 0 0.0 0.0 0.00 0.00 0.00 80 1015.7
20150901123221 75 0 0.0 0.0 0.00 0.00 0.00 81 1015.8
20150901122920 74 0 0.0 0.0 0.00 0.00 0.00 85 1015.8
20150901122721 74 0 0.0 0.0 0.00 0.00 0.00 85 1015.9
20150901122521 73 0 0.0 0.0 0.00 0.00 0.00 85 1015.7
20150901122420 73 0 0.0 0.0 0.00 0.00 0.00 85 1015.8
20150901122320 72 0 0.0 0.0 0.00 0.00 0.00 86 1015.8
20150901122221 72 0 0.0 0.0 0.00 0.00 0.00 86 1015.7
20150901122123 72 0 0.0 0.0 0.00 0.00 0.00 85 1015.6
20150901122020 71 0 0.0 0.0 0.00 0.00 0.00 86 1015.7
20150901121920 71 0 0.0 0.0 0.00 0.00 0.00 85 1015.8
20150901121820 71 0 0.0 0.0 0.00 0.00 0.00 85 1015.8
20150901121721 71 0 0.0 0.0 0.00 0.00 0.00 85 1015.6
20150901121621 71 0 0.0 0.0 0.00 0.00 0.00 84 1015.8
20150901121521 72 0 0.0 0.0 0.00 0.00 0.00 82 1015.7
20150901121320 72 0 0.0 0.0 0.00 0.00 0.00 81 1015.8
20150901121221 72 0 0.0 0.0 0.00 0.00 0.00 81 1015.7
20150901121021 73 0 0.0 0.0 0.00 0.00 0.00 81 1015.5
20150901120721 72 0 0.0 0.0 0.00 0.00 0.00 84 1015.6
20150901120620 72 0 0.0 0.0 0.00 0.00 0.00 84 1015.7
20150901120521 72 0 0.0 0.0 0.00 0.00 0.00 84 1015.7
20150901120421 72 0 0.0 0.0 0.00 0.00 0.00 84 1015.7
20150901120321 72 0 0.0 0.0 0.00 0.00 0.00 84 1015.7
20150901120221 72 0 0.0 0.0 0.00 0.00 0.00 84 1015.7
20150901120121 72 0 0.0 0.0 0.00 0.00 0.00 84 1015.8
20150901120020 72 0 0.0 0.0 0.00 0.00 0.00 84 1015.6
20150901115921 73 0 0.0 0.0 0.00 0.00 0.00 84 1015.9
20150901115821 72 0 0.0 0.0 0.00 0.00 0.00 85 1015.9
20150901115520 72 0 0.0 0.0 0.00 0.00 0.00 86 1015.5
20150901115420 72 0 0.0 0.0 0.00 0.00 0.00 87 1015.7
20150901115321 72 0 0.0 0.0 0.00 0.00 0.00 88 1015.5
20150901115221 72 0 0.0 0.0 0.00 0.00 0.00 88 1015.5
20150901115021 72 0 0.0 0.0 0.00 0.00 0.00 91 1015.4
20150901114820 72 0 0.0 0.0 0.00 0.00 0.00 92 1015.6
20150901114720 71 0 0.0 0.0 0.00 0.00 0.00 94 1015.7
20150901114621 70 0 0.0 0.0 0.00 0.00 0.00 94 1015.4
20150901114321 69 0 0.0 0.0 0.00 0.00 0.00 96 1015.5
20150901114220 69 0 0.0 0.0 0.00 0.00 0.00 96 1015.5
20150901114120 68 0 0.0 0.0 0.00 0.00 0.00 96 1015.5
20150901114021 68 0 0.0 0.0 0.00 0.00 0.00 96 1015.4
20150901113620 68 0 0.0 0.0 0.00 0.00 0.00 98 1015.4
20150901113421 68 0 0.0 0.0 0.00 0.00 0.00 98 1015.4
20150901113321 68 0 0.0 0.0 0.00 0.00 0.00 98 1015.6
20150901113221 68 0 0.0 0.0 0.00 0.00 0.00 98 1015.5
20150901113120 67 0 0.0 0.0 0.00 0.00 0.00 98 1015.5
20150901112821 67 0 0.0 0.0 0.00 0.00 0.00 98 1015.5
20150901112720 67 0 0.0 0.0 0.00 0.00 0.00 98 1015.5
20150901112321 67 0 0.0 0.0 0.00 0.00 0.00 98 1015.3
20150901112021 67 1 0.0 1.0 0.00 0.00 0.00 98 1015.3
20150901111921 67 1 0.0 1.0 0.00 0.00 0.00 98 1015.3
20150901111821 67 1 0.0 1.0 0.00 0.00 0.00 98 1015.2
20150901111720 67 1 0.0 1.0 0.00 0.00 0.00 98 1015.2
20150901111620 67 1 0.0 1.0 0.00 0.00 0.00 98 1015.2
20150901111520 67 1 0.0 1.0 0.00 0.00 0.00 98 1015.1
20150901111321 67 1 0.0 1.0 0.00 0.00 0.00 98 1015.1
20150901111221 67 1 0.0 1.0 0.00 0.00 0.00 98 1015.3
20150901111120 67 0 0.0 0.0 0.00 0.00 0.00 97 1015.2
20150901110920 67 0 0.0 0.0 0.00 0.00 0.00 97 1015.2
20150901110820 67 0 0.0 0.0 0.00 0.00 0.00 97 1015.3
20150901110621 67 0 0.0 0.0 0.00 0.00 0.00 97 1015.2
20150901110521 67 0 0.0 0.0 0.00 0.00 0.00 97 1015.2
20150901110320 67 0 0.0 0.0 0.00 0.00 0.00 97 1015.1
20150901110220 67 0 0.0 0.0 0.00 0.00 0.00 97 1015.0
20150901110121 67 0 0.0 0.0 0.00 0.00 0.00 97 1015.3
20150901105921 67 0 0.0 0.0 0.00 0.00 0.00 97 1015.0
20150901105820 67 0 0.0 0.0 0.00 0.00 0.00 97 1014.9
20150901105720 67 0 0.0 0.0 0.00 0.00 0.00 97 1015.1
20150901105621 67 0 0.0 0.0 0.00 0.00 0.00 97 1015.2
20150901105521 67 0 0.0 0.0 0.00 0.00 0.00 97 1015.1
20150901105421 67 0 0.0 0.0 0.00 0.00 0.00 97 1014.9
20150901105320 67 0 0.0 0.0 0.00 0.00 0.00 97 1014.8
20150901105120 67 0 0.0 0.0 0.00 0.00 0.00 97 1014.9
20150901105021 67 0 0.0 0.0 0.00 0.00 0.00 97 1015.0
20150901104821 67 0 0.0 0.0 0.00 0.00 0.00 97 1015.0
20150901104721 67 0 0.0 0.0 0.00 0.00 0.00 96 1015.0
20150901104620 67 0 0.0 0.0 0.00 0.00 0.00 96 1015.1
20150901104520 67 0 0.0 0.0 0.00 0.00 0.00 96 1015.0
20150901104321 67 0 0.0 0.0 0.00 0.00 0.00 96 1015.0
20150901104221 67 0 0.0 0.0 0.00 0.00 0.00 96 1015.0
20150901104121 67 0 0.0 0.0 0.00 0.00 0.00 96 1014.9
20150901104021 67 0 0.0 0.0 0.00 0.00 0.00 96 1014.8
20150901103920 67 0 0.0 0.0 0.00 0.00 0.00 95 1015.1
20150901103820 68 0 0.0 0.0 0.00 0.00 0.00 95 1015.0
20150901103521 68 0 0.0 0.0 0.00 0.00 0.00 95 1014.9
20150901103320 68 0 0.0 0.0 0.00 0.00 0.00 95 1014.9
20150901103220 68 0 0.0 0.0 0.00 0.00 0.00 95 1015.0
20150901103121 68 0 0.0 0.0 0.00 0.00 0.00 95 1014.9
20150901102921 68 0 0.0 0.0 0.00 0.00 0.00 95 1014.8
20150901102820 68 0 0.0 0.0 0.00 0.00 0.00 96 1014.8
20150901102520 68 0 0.0 0.0 0.00 0.00 0.00 97 1014.7
20150901102420 68 0 0.0 0.0 0.00 0.00 0.00 97 1014.8
20150901102221 67 0 0.0 0.0 0.00 0.00 0.00 97 1014.7
20150901102020 67 0 0.0 0.0 0.00 0.00 0.00 96 1014.7
20150901101620 67 0 0.0 0.0 0.00 0.00 0.00 96 1014.6
20150901101421 67 0 0.0 0.0 0.00 0.00 0.00 95 1014.6
20150901101321 67 0 0.0 0.0 0.00 0.00 0.00 95 1014.7
20150901100921 67 0 0.0 0.0 0.00 0.00 0.00 94 1014.5
20150901100821 67 0 0.0 0.0 0.00 0.00 0.00 94 1014.6
20150901100721 68 0 0.0 0.0 0.00 0.00 0.00 93 1014.5
20150901100620 68 0 0.0 0.0 0.00 0.00 0.00 93 1014.6
20150901100520 68 0 0.0 0.0 0.00 0.00 0.00 93 1014.4
20150901100420 68 0 0.0 0.0 0.00 0.00 0.00 93 1014.6
20150901100321 68 0 0.0 0.0 0.00 0.00 0.00 93 1014.7
20150901100221 68 0 0.0 0.0 0.00 0.00 0.00 93 1014.6
20150901100020 68 0 0.0 0.0 0.00 0.00 0.00 93 1014.7
20150901095921 68 0 0.0 0.0 0.00 0.00 0.00 93 1014.6
20150901095721 68 0 0.0 0.0 0.00 0.00 0.00 93 1014.7
20150901095620 68 0 0.0 0.0 0.00 0.00 0.00 93 1014.6
20150901095420 68 0 0.0 0.0 0.00 0.00 0.00 93 1014.5
20150901095321 68 0 0.0 0.0 0.00 0.00 0.00 93 1014.6
20150901095221 68 0 0.0 0.0 0.00 0.00 0.00 92 1014.6
20150901095121 69 0 0.0 0.0 0.00 0.00 0.00 93 1014.6
20150901095020 69 0 0.0 0.0 0.00 0.00 0.00 93 1014.5
20150901094920 69 90 0.0 1.0 0.00 0.00 0.00 93 1014.5
20150901094821 69 90 0.0 1.0 0.00 0.00 0.00 93 1014.3
20150901094421 69 90 0.0 1.0 0.00 0.00 0.00 93 1014.7
20150901093921 69 97 0.0 1.0 0.00 0.00 0.00 93 1014.3
20150901093821 69 97 0.0 1.0 0.00 0.00 0.00 93 1014.5
20150901093620 69 100 1.0 1.0 0.00 0.00 0.00 93 1014.3
20150901093521 69 104 1.0 1.0 0.00 0.00 0.00 93 1014.3
20150901093421 69 104 0.0 1.0 0.00 0.00 0.00 93 1014.3
20150901093321 69 107 0.0 1.0 0.00 0.00 0.00 93 1014.3
20150901093221 69 119 1.0 1.0 0.00 0.00 0.00 93 1014.1
20150901093120 69 165 1.0 1.0 0.00 0.00 0.00 93 1014.4
20150901093020 69 0 0.0 0.0 0.00 0.00 0.00 93 1014.4
20150901092920 69 0 0.0 0.0 0.00 0.00 0.00 93 1014.3
20150901092822 69 0 0.0 0.0 0.00 0.00 0.00 93 1014.2
20150901092721 69 0 0.0 0.0 0.00 0.00 0.00 93 1014.2
20150901092621 69 0 0.0 0.0 0.00 0.00 0.00 94 1014.2
20150901092420 69 0 0.0 0.0 0.00 0.00 0.00 94 1014.2
20150901092320 69 0 0.0 0.0 0.00 0.00 0.00 94 1014.1
20150901092221 69 0 0.0 0.0 0.00 0.00 0.00 94 1014.2
20150901092121 69 0 0.0 0.0 0.00 0.00 0.00 94 1014.2
20150901092021 69 0 0.0 0.0 0.00 0.00 0.00 95 1014.3
20150901091920 69 0 0.0 0.0 0.00 0.00 0.00 95 1014.3
20150901091820 69 0 0.0 0.0 0.00 0.00 0.00 95 1014.2
20150901091720 69 0 0.0 0.0 0.00 0.00 0.00 95 1013.9
20150901091621 68 0 0.0 0.0 0.00 0.00 0.00 95 1014.1
20150901091420 68 0 0.0 0.0 0.00 0.00 0.00 95 1014.2
20150901091320 68 0 0.0 0.0 0.00 0.00 0.00 95 1014.0
20150901091220 69 0 0.0 0.0 0.00 0.00 0.00 95 1014.1
20150901091021 69 0 0.0 0.0 0.00 0.00 0.00 95 1014.1
20150901090921 68 0 0.0 0.0 0.00 0.00 0.00 95 1014.1
20150901090720 69 0 0.0 0.0 0.00 0.00 0.00 95 1014.3
20150901090620 69 0 0.0 0.0 0.00 0.00 0.00 95 1014.2
20150901090221 68 0 0.0 0.0 0.00 0.00 0.00 95 1014.2
20150901090020 68 0 0.0 0.0 0.00 0.00 0.00 95 1014.2
20150901085921 68 0 0.0 0.0 0.00 0.00 0.00 95 1014.3
20150901085320 69 0 0.0 0.0 0.00 0.00 0.00 94 1014.3
20150901085221 69 90 0.0 1.0 0.00 0.00 0.00 94 1014.2
20150901085121 69 90 0.0 1.0 0.00 0.00 0.00 95 1014.2
20150901084920 69 80 0.0 1.0 0.00 0.00 0.00 95 1014.2
20150901084820 69 80 0.0 1.0 0.00 0.00 0.00 95 1014.4
20150901084721 69 80 0.0 1.0 0.00 0.00 0.00 96 1014.2
20150901084621 69 80 0.0 1.0 0.00 0.00 0.00 96 1014.2
20150901084420 69 80 0.0 1.0 0.00 0.00 0.00 96 1014.2
20150901084320 69 80 0.0 1.0 0.00 0.00 0.00 97 1014.2
20150901084220 69 80 0.0 1.0 0.00 0.00 0.00 97 1014.2
20150901084121 69 76 1.0 1.0 0.00 0.00 0.00 97 1014.4
20150901084021 69 60 1.0 1.0 0.00 0.00 0.00 97 1014.2
20150901083921 68 0 0.0 0.0 0.00 0.00 0.00 97 1014.4
20150901083821 68 0 0.0 0.0 0.00 0.00 0.00 97 1014.3
20150901083720 68 0 0.0 0.0 0.00 0.00 0.00 97 1014.2
20150901083620 68 0 0.0 0.0 0.00 0.00 0.00 97 1014.1
20150901083421 68 0 0.0 0.0 0.00 0.00 0.00 97 1014.3
20150901083321 68 0 0.0 0.0 0.00 0.00 0.00 97 1014.2
20150901083220 68 0 0.0 0.0 0.00 0.00 0.00 96 1014.1
20150901083120 68 0 0.0 0.0 0.00 0.00 0.00 96 1014.0
20150901083020 68 0 0.0 0.0 0.00 0.00 0.00 96 1014.1
20150901082920 68 0 0.0 0.0 0.00 0.00 0.00 96 1014.2
20150901082820 69 0 0.0 0.0 0.00 0.00 0.00 96 1014.1
20150901082721 69 0 0.0 0.0 0.00 0.00 0.00 95 1014.2
20150901082621 69 0 0.0 0.0 0.00 0.00 0.00 95 1014.1
20150901082520 69 0 0.0 0.0 0.00 0.00 0.00 96 1014.1
20150901082420 69 0 0.0 0.0 0.00 0.00 0.00 96 1014.1
20150901082320 69 0 0.0 0.0 0.00 0.00 0.00 96 1014.1
20150901082221 69 0 0.0 0.0 0.00 0.00 0.00 96 1014.3
20150901082120 69 0 0.0 0.0 0.00 0.00 0.00 96 1014.2
20150901081920 69 0 0.0 0.0 0.00 0.00 0.00 96 1014.0
20150901081521 68 0 0.0 0.0 0.00 0.00 0.00 95 1014.2
20150901081420 68 0 0.0 0.0 0.00 0.00 0.00 95 1013.9
20150901081320 68 0 0.0 0.0 0.00 0.00 0.00 96 1014.1
20150901081020 68 0 0.0 0.0 0.00 0.00 0.00 94 1014.1
20150901080921 68 0 0.0 0.0 0.00 0.00 0.00 94 1014.0
20150901080821 68 0 0.0 0.0 0.00 0.00 0.00 94 1014.1
20150901080420 69 0 0.0 0.0 0.00 0.00 0.00 93 1014.1
20150901080121 69 0 0.0 0.0 0.00 0.00 0.00 93 1014.2
20150901080021 69 0 0.0 0.0 0.00 0.00 0.00 93 1014.2
20150901075920 69 0 0.0 0.0 0.00 0.00 0.00 93 1014.1
20150901075820 69 0 0.0 0.0 0.00 0.00 0.00 93 1014.4
20150901075621 69 0 0.0 0.0 0.00 0.00 0.00 93 1014.1
20150901075420 69 0 0.0 0.0 0.00 0.00 0.00 92 1013.9
20150901075320 69 0 0.0 0.0 0.00 0.00 0.00 92 1014.1
20150901075021 69 0 0.0 0.0 0.00 0.00 0.00 92 1014.1
20150901074921 69 0 0.0 0.0 0.00 0.00 0.00 91 1014.1
20150901074620 69 0 0.0 0.0 0.00 0.00 0.00 91 1014.2
20150901074520 69 0 0.0 0.0 0.00 0.00 0.00 91 1014.0
20150901074421 69 0 0.0 0.0 0.00 0.00 0.00 91 1014.3
20150901074321 70 0 0.0 0.0 0.00 0.00 0.00 91 1014.1
20150901074220 70 0 0.0 0.0 0.00 0.00 0.00 91 1014.2
20150901074120 70 0 0.0 0.0 0.00 0.00 0.00 90 1014.1
20150901074020 70 0 0.0 0.0 0.00 0.00 0.00 91 1014.0
20150901073921 70 0 0.0 0.0 0.00 0.00 0.00 91 1014.2
20150901073821 70 0 0.0 0.0 0.00 0.00 0.00 91 1014.1
20150901073720 70 0 0.0 0.0 0.00 0.00 0.00 93 1014.0
20150901073320 69 0 0.0 0.0 0.00 0.00 0.00 93 1014.0
20150901073221 69 0 0.0 0.0 0.00 0.00 0.00 93 1014.1
20150901073121 69 0 0.0 0.0 0.00 0.00 0.00 92 1014.1
20150901072920 69 0 0.0 0.0 0.00 0.00 0.00 92 1013.9
20150901072721 69 0 0.0 0.0 0.00 0.00 0.00 91 1014.1
20150901072420 69 0 0.0 0.0 0.00 0.00 0.00 91 1014.2
20150901072320 69 0 0.0 0.0 0.00 0.00 0.00 91 1014.2
20150901072121 69 0 0.0 0.0 0.00 0.00 0.00 90 1014.0
20150901071920 69 0 0.0 0.0 0.00 0.00 0.00 90 1013.9
20150901071720 69 0 0.0 0.0 0.00 0.00 0.00 90 1013.9
20150901071620 69 0 0.0 0.0 0.00 0.00 0.00 89 1014.1
20150901071520 70 0 0.0 0.0 0.00 0.00 0.00 89 1014.0
20150901071420 70 0 0.0 0.0 0.00 0.00 0.00 89 1013.9
20150901071321 69 0 0.0 0.0 0.00 0.00 0.00 89 1013.9
20150901071220 69 0 0.0 0.0 0.00 0.00 0.00 90 1014.0
20150901071120 70 0 0.0 0.0 0.00 0.00 0.00 90 1014.1
20150901070820 70 0 0.0 0.0 0.00 0.00 0.00 90 1014.0
20150901070721 70 0 0.0 0.0 0.00 0.00 0.00 91 1014.0
20150901070621 70 0 0.0 0.0 0.00 0.00 0.00 91 1014.1
20150901070520 70 0 0.0 0.0 0.00 0.00 0.00 91 1013.8
20150901070320 70 0 0.0 0.0 0.00 0.00 0.00 91 1013.8
20150901070021 70 0 0.0 0.0 0.00 0.00 0.00 91 1014.0
20150901065720 70 0 0.0 0.0 0.00 0.00 0.00 90 1013.9
20150901065620 70 0 0.0 0.0 0.00 0.00 0.00 90 1014.1
20150901065520 70 0 0.0 0.0 0.00 0.00 0.00 90 1014.1
20150901065421 70 0 0.0 0.0 0.00 0.00 0.00 90 1014.0
20150901065321 70 0 0.0 0.0 0.00 0.00 0.00 90 1014.2
20150901064621 71 0 0.0 0.0 0.00 0.00 0.00 90 1014.2
20150901064220 71 0 0.0 0.0 0.00 0.00 0.00 90 1014.2
20150901064020 70 0 0.0 0.0 0.00 0.00 0.00 91 1013.9
20150901063921 70 0 0.0 0.0 0.00 0.00 0.00 92 1014.2
20150901063720 69 0 0.0 0.0 0.00 0.00 0.00 93 1014.0
20150901063520 69 0 0.0 0.0 0.00 0.00 0.00 93 1014.2
20150901063420 69 0 0.0 0.0 0.00 0.00 0.00 93 1014.1
20150901063320 69 0 0.0 0.0 0.00 0.00 0.00 93 1014.1
20150901063221 70 0 0.0 0.0 0.00 0.00 0.00 93 1014.2
20150901063120 70 0 0.0 0.0 0.00 0.00 0.00 93 1014.1
20150901062920 70 0 0.0 0.0 0.00 0.00 0.00 93 1014.2
20150901062820 70 0 0.0 0.0 0.00 0.00 0.00 93 1014.2
20150901062621 70 0 0.0 0.0 0.00 0.00 0.00 92 1014.0
20150901062420 70 0 0.0 0.0 0.00 0.00 0.00 92 1014.3
20150901062120 70 0 0.0 0.0 0.00 0.00 0.00 90 1014.0
20150901062021 70 0 0.0 0.0 0.00 0.00 0.00 90 1014.0
20150901061921 70 0 0.0 0.0 0.00 0.00 0.00 91 1014.2
20150901061720 70 0 0.0 0.0 0.00 0.00 0.00 91 1014.1
20150901061620 71 0 0.0 0.0 0.00 0.00 0.00 90 1014.1
20150901061520 71 0 0.0 0.0 0.00 0.00 0.00 90 1014.2
20150901061420 71 0 0.0 0.0 0.00 0.00 0.00 89 1014.1
20150901061321 71 0 0.0 0.0 0.00 0.00 0.00 89 1014.1
20150901061120 70 0 0.0 0.0 0.00 0.00 0.00 89 1014.1
20150901061020 71 0 0.0 0.0 0.00 0.00 0.00 89 1014.2
20150901060420 70 0 0.0 0.0 0.00 0.00 0.00 87 1014.3
20150901060220 70 0 0.0 0.0 0.00 0.00 0.00 87 1014.4
20150901060120 70 0 0.0 0.0 0.00 0.00 0.00 87 1014.5
20150901060021 70 0 0.0 0.0 0.00 0.00 0.00 87 1014.4
20150901055920 70 0 0.0 0.0 0.00 0.00 0.00 87 1014.6
20150901055720 70 0 0.0 0.0 0.00 0.00 0.00 87 1014.4
20150901055421 71 0 0.0 0.0 0.00 0.00 0.00 86 1014.4
20150901055321 71 0 0.0 0.0 0.00 0.00 0.00 86 1014.4
20150901055220 71 0 0.0 0.0 0.00 0.00 0.00 85 1014.3
20150901054921 72 0 0.0 0.0 0.00 0.00 0.00 82 1014.5
20150901054820 72 0 0.0 0.0 0.00 0.00 0.00 82 1014.5
20150901054620 73 0 0.0 0.0 0.00 0.00 0.00 83 1014.5
20150901054220 72 0 0.0 0.0 0.00 0.00 0.00 83 1014.2
20150901054120 72 0 0.0 0.0 0.00 0.00 0.00 83 1014.3
20150901054020 72 0 0.0 0.0 0.00 0.00 0.00 83 1014.5
20150901053921 71 0 0.0 0.0 0.00 0.00 0.00 84 1014.2
20150901053821 71 0 0.0 0.0 0.00 0.00 0.00 84 1014.2
20150901053720 71 0 0.0 0.0 0.00 0.00 0.00 84 1014.4
20150901053520 72 0 0.0 0.0 0.00 0.00 0.00 83 1014.5
20150901053420 72 0 0.0 0.0 0.00 0.00 0.00 83 1014.4
20150901053221 71 0 0.0 0.0 0.00 0.00 0.00 84 1014.3
20150901052521 72 0 0.0 0.0 0.00 0.00 0.00 82 1014.3
20150901052421 72 0 0.0 0.0 0.00 0.00 0.00 82 1014.5
20150901052320 72 0 0.0 0.0 0.00 0.00 0.00 83 1014.3
20150901052220 72 0 0.0 0.0 0.00 0.00 0.00 83 1014.3
20150901052120 72 0 0.0 0.0 0.00 0.00 0.00 83 1014.4
20150901052020 72 0 0.0 0.0 0.00 0.00 0.00 83 1014.4
20150901051821 72 0 0.0 0.0 0.00 0.00 0.00 84 1014.4
20150901051620 72 0 0.0 0.0 0.00 0.00 0.00 84 1014.4
20150901051520 71 0 0.0 0.0 0.00 0.00 0.00 85 1014.4
20150901051120 71 0 0.0 0.0 0.00 0.00 0.00 85 1014.3
20150901051021 72 0 0.0 0.0 0.00 0.00 0.00 84 1014.3
20150901050821 72 0 0.0 0.0 0.00 0.00 0.00 84 1014.1
20150901050520 73 0 0.0 0.0 0.00 0.00 0.00 82 1014.4
20150901050421 73 0 0.0 0.0 0.00 0.00 0.00 82 1014.0
20150901050221 73 0 0.0 0.0 0.00 0.00 0.00 81 1014.3
20150901050120 73 0 0.0 0.0 0.00 0.00 0.00 81 1014.2
20150901045920 74 0 0.0 0.0 0.00 0.00 0.00 80 1014.2
20150901045821 74 0 0.0 0.0 0.00 0.00 0.00 80 1014.3
20150901045720 74 0 0.0 0.0 0.00 0.00 0.00 80 1014.3
20150901045520 74 0 0.0 0.0 0.00 0.00 0.00 81 1014.3
20150901045221 73 0 0.0 0.0 0.00 0.00 0.00 82 1014.3
20150901045020 73 0 0.0 0.0 0.00 0.00 0.00 82 1014.2
20150901044721 72 0 0.0 0.0 0.00 0.00 0.00 82 1014.3
20150901044520 72 0 0.0 0.0 0.00 0.00 0.00 81 1014.1
20150901044420 72 0 0.0 0.0 0.00 0.00 0.00 81 1014.3
20150901044321 73 0 0.0 0.0 0.00 0.00 0.00 81 1014.0
20150901044120 73 0 0.0 0.0 0.00 0.00 0.00 81 1014.3
20150901044020 73 0 0.0 0.0 0.00 0.00 0.00 80 1014.3
20150901043921 73 0 0.0 0.0 0.00 0.00 0.00 80 1014.3
20150901043820 73 0 0.0 0.0 0.00 0.00 0.00 79 1014.3
20150901043720 73 0 0.0 0.0 0.00 0.00 0.00 79 1014.3
20150901043620 73 0 0.0 0.0 0.00 0.00 0.00 79 1014.2
20150901043421 74 0 0.0 0.0 0.00 0.00 0.00 79 1014.3
20150901043220 74 0 0.0 0.0 0.00 0.00 0.00 79 1014.4
20150901043120 74 0 0.0 0.0 0.00 0.00 0.00 79 1014.2
20150901043020 74 0 0.0 0.0 0.00 0.00 0.00 79 1014.0
20150901042821 74 0 0.0 0.0 0.00 0.00 0.00 80 1014.1
20150901042721 74 0 0.0 0.0 0.00 0.00 0.00 80 1014.1
20150901042620 74 0 0.0 0.0 0.00 0.00 0.00 80 1014.2
20150901042520 74 0 0.0 0.0 0.00 0.00 0.00 81 1014.0
20150901042420 74 0 0.0 0.0 0.00 0.00 0.00 81 1014.2
20150901042321 74 0 0.0 0.0 0.00 0.00 0.00 82 1014.2
20150901042221 73 0 0.0 0.0 0.00 0.00 0.00 82 1014.2
20150901042120 74 0 0.0 0.0 0.00 0.00 0.00 83 1014.0
20150901041920 72 0 0.0 0.0 0.00 0.00 0.00 82 1014.2
20150901041820 72 0 0.0 0.0 0.00 0.00 0.00 82 1014.0
20150901041721 72 0 0.0 0.0 0.00 0.00 0.00 82 1014.2
20150901041620 72 0 0.0 0.0 0.00 0.00 0.00 81 1014.1
20150901041520 72 0 0.0 0.0 0.00 0.00 0.00 81 1014.1
20150901041420 72 0 0.0 0.0 0.00 0.00 0.00 81 1014.0
20150901041320 73 0 0.0 0.0 0.00 0.00 0.00 80 1014.0
20150901041121 73 0 0.0 0.0 0.00 0.00 0.00 79 1014.1
20150901040720 73 0 0.0 0.0 0.00 0.00 0.00 82 1014.1
20150901040620 73 0 0.0 0.0 0.00 0.00 0.00 82 1014.1
20150901040420 73 0 0.0 0.0 0.00 0.00 0.00 82 1014.1
20150901040320 73 0 0.0 0.0 0.00 0.00 0.00 82 1014.2
20150901040120 73 0 0.0 0.0 0.00 0.00 0.00 82 1014.2
20150901040021 73 0 0.0 0.0 0.00 0.00 0.00 82 1014.3
20150901035921 73 0 0.0 0.0 0.00 0.00 0.00 83 1014.4
20150901035720 74 0 0.0 0.0 0.00 0.00 0.00 82 1014.2
20150901035620 74 0 0.0 0.0 0.00 0.00 0.00 82 1014.3
20150901035420 74 0 0.0 0.0 0.00 0.00 0.00 81 1014.4
20150901035320 74 0 0.0 0.0 0.00 0.00 0.00 81 1014.2
20150901035120 74 0 0.0 0.0 0.00 0.00 0.00 79 1014.1
20150901034920 74 0 0.0 0.0 0.00 0.00 0.00 80 1014.1
20150901034820 74 0 0.0 0.0 0.00 0.00 0.00 80 1014.0
20150901034720 74 0 0.0 0.0 0.00 0.00 0.00 80 1014.1
20150901034621 74 0 0.0 0.0 0.00 0.00 0.00 79 1014.1
20150901034420 74 0 0.0 0.0 0.00 0.00 0.00 79 1014.3
20150901034320 74 0 0.0 0.0 0.00 0.00 0.00 79 1014.1
20150901034120 74 0 0.0 0.0 0.00 0.00 0.00 80 1014.1
20150901034020 74 0 0.0 0.0 0.00 0.00 0.00 81 1014.1
20150901033921 74 0 0.0 0.0 0.00 0.00 0.00 81 1014.1
20150901033821 74 0 0.0 0.0 0.00 0.00 0.00 81 1014.0
20150901033520 73 0 0.0 0.0 0.00 0.00 0.00 81 1014.0
20150901033420 74 0 0.0 0.0 0.00 0.00 0.00 81 1014.0
20150901033220 74 0 0.0 0.0 0.00 0.00 0.00 80 1014.0
20150901033120 74 0 0.0 0.0 0.00 0.00 0.00 80 1014.1
20150901032721 74 0 0.0 0.0 0.00 0.00 0.00 80 1014.0
20150901032620 75 0 0.0 0.0 0.00 0.00 0.00 81 1014.0
20150901032520 74 0 0.0 0.0 0.00 0.00 0.00 81 1013.9
20150901032420 74 0 0.0 0.0 0.00 0.00 0.00 81 1014.1
20150901032320 74 0 0.0 0.0 0.00 0.00 0.00 82 1014.1
20150901032120 74 0 0.0 0.0 0.00 0.00 0.00 82 1014.0
20150901032020 74 0 0.0 0.0 0.00 0.00 0.00 81 1014.1
20150901031920 74 0 0.0 0.0 0.00 0.00 0.00 82 1014.1
20150901031820 74 0 0.0 0.0 0.00 0.00 0.00 82 1014.0
20150901031720 74 0 0.0 0.0 0.00 0.00 0.00 81 1014.1
20150901031620 75 0 0.0 0.0 0.00 0.00 0.00 81 1013.9
20150901031520 75 0 0.0 0.0 0.00 0.00 0.00 81 1013.9
20150901031420 75 0 0.0 0.0 0.00 0.00 0.00 81 1014.0
20150901031220 74 0 0.0 0.0 0.00 0.00 0.00 84 1014.1
20150901031120 74 0 0.0 0.0 0.00 0.00 0.00 85 1014.1
20150901031021 74 0 0.0 0.0 0.00 0.00 0.00 86 1014.1
20150901030920 74 0 0.0 0.0 0.00 0.00 0.00 86 1014.2
20150901030820 73 0 0.0 0.0 0.00 0.00 0.00 87 1014.0
20150901030720 73 0 0.0 0.0 0.00 0.00 0.00 87 1014.0
20150901030621 73 0 0.0 0.0 0.00 0.00 0.00 88 1013.9
20150901030520 72 0 0.0 0.0 0.00 0.00 0.00 88 1014.1
20150901030420 73 0 0.0 0.0 0.00 0.00 0.00 88 1014.1
20150901030320 73 0 0.0 0.0 0.00 0.00 0.00 88 1013.9
20150901030220 73 0 0.0 0.0 0.00 0.00 0.00 87 1013.9
20150901030121 73 0 0.0 0.0 0.00 0.00 0.00 88 1014.2
20150901025920 74 0 0.0 0.0 0.00 0.00 0.00 87 1014.1
20150901025820 74 0 0.0 0.0 0.00 0.00 0.00 87 1013.9
20150901025720 74 0 0.0 0.0 0.00 0.00 0.00 86 1013.9
20150901025620 74 0 0.0 0.0 0.00 0.00 0.00 86 1013.9
20150901025520 74 0 0.0 0.0 0.00 0.00 0.00 86 1013.9
20150901025320 74 0 0.0 0.0 0.00 0.00 0.00 86 1014.1
20150901025220 75 0 0.0 0.0 0.00 0.00 0.00 86 1014.0
20150901024920 75 0 0.0 0.0 0.00 0.00 0.00 86 1014.1
20150901024820 75 0 0.0 0.0 0.00 0.00 0.00 87 1014.1
20150901024720 75 0 0.0 0.0 0.00 0.00 0.00 86 1014.1
20150901024621 75 0 0.0 0.0 0.00 0.00 0.00 86 1013.8
20150901024420 75 0 0.0 0.0 0.00 0.00 0.00 86 1014.1
20150901024320 75 0 0.0 0.0 0.00 0.00 0.00 85 1014.2
20150901024121 75 0 0.0 0.0 0.00 0.00 0.00 84 1013.8
20150901024020 75 0 0.0 0.0 0.00 0.00 0.00 84 1013.9
20150901023820 76 0 0.0 0.0 0.00 0.00 0.00 83 1014.0
20150901023620 76 0 0.0 0.0 0.00 0.00 0.00 82 1014.1
20150901023520 76 0 0.0 0.0 0.00 0.00 0.00 82 1013.9
20150901023421 76 0 0.0 0.0 0.00 0.00 0.00 83 1014.1
20150901023120 75 0 0.0 0.0 0.00 0.00 0.00 86 1014.1
20150901022920 75 0 0.0 0.0 0.00 0.00 0.00 87 1014.2
20150901022720 74 0 0.0 0.0 0.00 0.00 0.00 87 1014.1
20150901022420 75 0 0.0 0.0 0.00 0.00 0.00 87 1014.0
20150901022320 75 0 0.0 0.0 0.00 0.00 0.00 88 1014.0
20150901022221 75 0 0.0 0.0 0.00 0.00 0.00 88 1014.2
20150901022121 75 0 0.0 0.0 0.00 0.00 0.00 87 1014.0
20150901022020 75 1 0.0 1.0 0.00 0.00 0.00 87 1014.2
20150901021820 74 1 0.0 1.0 0.00 0.00 0.00 88 1014.0
20150901021720 74 1 0.0 1.0 0.00 0.00 0.00 88 1014.0
20150901021620 74 1 0.0 2.0 0.00 0.00 0.00 87 1014.0
20150901021421 74 1 0.0 2.0 0.00 0.00 0.00 88 1014.0
20150901021320 74 1 0.0 2.0 0.00 0.00 0.00 88 1014.1
20150901021220 74 1 0.0 2.0 0.00 0.00 0.00 88 1014.1
20150901021020 74 1 1.0 2.0 0.00 0.00 0.00 87 1014.1
20150901020820 74 1 0.0 2.0 0.00 0.00 0.00 87 1014.0
20150901020720 75 1 1.0 2.0 0.00 0.00 0.00 78 1013.9
20150901020620 75 1 1.0 2.0 0.00 0.00 0.00 78 1014.0
20150901020520 75 1 1.0 2.0 0.00 0.00 0.00 78 1013.8
20150901020421 75 1 1.0 2.0 0.00 0.00 0.00 78 1014.0
20150901020220 75 1 1.0 2.0 0.00 0.00 0.00 78 1014.1
20150901015921 75 1 1.0 2.0 0.00 0.00 0.00 79 1014.2
20150901015820 75 1 1.0 2.0 0.00 0.00 0.00 76 1014.1
20150901015620 76 0 0.0 0.0 0.00 0.00 0.00 75 1014.1
20150901015421 77 0 0.0 0.0 0.00 0.00 0.00 74 1014.2
20150901015020 77 0 0.0 0.0 0.00 0.00 0.00 73 1014.1
20150901014921 77 0 0.0 0.0 0.00 0.00 0.00 73 1014.0
20150901014420 77 0 0.0 0.0 0.00 0.00 0.00 73 1014.1
20150901014321 77 0 0.0 0.0 0.00 0.00 0.00 73 1013.8
20150901014221 77 0 0.0 0.0 0.00 0.00 0.00 72 1013.9
20150901014120 77 0 0.0 0.0 0.00 0.00 0.00 72 1013.8
20150901014020 77 0 0.0 0.0 0.00 0.00 0.00 72 1013.6
20150901013920 77 0 0.0 0.0 0.00 0.00 0.00 71 1013.9
20150901013820 77 0 0.0 0.0 0.00 0.00 0.00 71 1013.8
20150901013320 78 0 0.0 0.0 0.00 0.00 0.00 70 1013.5
20150901013220 78 0 0.0 0.0 0.00 0.00 0.00 70 1013.8
20150901013121 78 0 0.0 0.0 0.00 0.00 0.00 70 1013.7
20150901013020 78 0 0.0 0.0 0.00 0.00 0.00 71 1013.7
20150901012920 78 0 0.0 0.0 0.00 0.00 0.00 71 1013.7
20150901012820 78 0 0.0 0.0 0.00 0.00 0.00 71 1013.6
20150901012720 78 0 0.0 0.0 0.00 0.00 0.00 71 1013.7
20150901012620 78 0 0.0 0.0 0.00 0.00 0.00 71 1013.6
20150901012420 78 0 0.0 0.0 0.00 0.00 0.00 70 1013.6
20150901012220 78 0 0.0 0.0 0.00 0.00 0.00 71 1013.5
20150901012120 78 0 0.0 0.0 0.00 0.00 0.00 70 1013.6
20150901012020 78 0 0.0 0.0 0.00 0.00 0.00 70 1013.5
20150901011820 78 0 0.0 0.0 0.00 0.00 0.00 71 1013.7
20150901011720 78 0 0.0 0.0 0.00 0.00 0.00 71 1013.5
20150901011620 78 0 0.0 0.0 0.00 0.00 0.00 71 1013.5
20150901011521 78 0 0.0 0.0 0.00 0.00 0.00 71 1013.5
20150901011320 78 0 0.0 0.0 0.00 0.00 0.00 72 1013.5
20150901011220 78 0 0.0 0.0 0.00 0.00 0.00 72 1013.5
20150901011120 77 0 0.0 0.0 0.00 0.00 0.00 73 1013.6
20150901011020 77 0 0.0 0.0 0.00 0.00 0.00 72 1013.5
20150901010920 77 0 0.0 0.0 0.00 0.00 0.00 72 1013.5
20150901010821 77 0 0.0 0.0 0.00 0.00 0.00 72 1013.4
20150901010720 77 0 0.0 0.0 0.00 0.00 0.00 72 1013.4
20150901010420 78 0 0.0 0.0 0.00 0.00 0.00 71 1013.5
20150901010320 78 0 0.0 0.0 0.00 0.00 0.00 71 1013.5
20150901010220 78 0 0.0 0.0 0.00 0.00 0.00 71 1013.3
20150901005920 78 0 0.0 0.0 0.00 0.00 0.00 71 1013.3
20150901005821 78 0 0.0 0.0 0.00 0.00 0.00 71 1013.6
20150901005720 77 0 0.0 0.0 0.00 0.00 0.00 72 1013.2
20150901005620 78 0 0.0 0.0 0.00 0.00 0.00 72 1013.4
20150901005520 78 0 0.0 0.0 0.00 0.00 0.00 71 1013.4
20150901005420 78 0 0.0 0.0 0.00 0.00 0.00 71 1013.2
20150901005120 78 0 0.0 0.0 0.00 0.00 0.00 72 1013.3
20150901005020 78 0 0.0 0.0 0.00 0.00 0.00 72 1013.3
20150901004820 78 0 0.0 0.0 0.00 0.00 0.00 72 1013.4
20150901004721 78 0 0.0 0.0 0.00 0.00 0.00 71 1013.3
20150901004520 78 0 0.0 0.0 0.00 0.00 0.00 72 1013.3
20150901004420 78 0 0.0 0.0 0.00 0.00 0.00 72 1013.2
20150901004320 78 0 0.0 0.0 0.00 0.00 0.00 72 1013.1
20150901004220 78 0 0.0 0.0 0.00 0.00 0.00 72 1013.1
20150901004120 78 0 0.0 0.0 0.00 0.00 0.00 72 1013.0
20150901003921 78 0 0.0 0.0 0.00 0.00 0.00 72 1013.1
20150901003821 78 0 0.0 0.0 0.00 0.00 0.00 72 1012.9
20150901003420 78 0 0.0 0.0 0.00 0.00 0.00 71 1012.9
20150901003320 78 0 0.0 0.0 0.00 0.00 0.00 70 1013.1
20150901003120 78 0 0.0 0.0 0.00 0.00 0.00 70 1013.0
20150901002920 78 0 0.0 0.0 0.00 0.00 0.00 70 1013.2
20150901002720 78 0 0.0 0.0 0.00 0.00 0.00 70 1013.2
20150901002620 78 0 0.0 0.0 0.00 0.00 0.00 70 1013.1
20150901002220 78 0 0.0 0.0 0.00 0.00 0.00 70 1013.0
20150901001821 79 0 0.0 0.0 0.00 0.00 0.00 67 1012.8
20150901001720 79 0 0.0 0.0 0.00 0.00 0.00 66 1013.3
20150901001520 79 0 0.0 0.0 0.00 0.00 0.00 66 1013.0
20150901001220 80 0 0.0 0.0 0.00 0.00 0.00 65 1013.1
20150901001120 80 0 0.0 0.0 0.00 0.00 0.00 65 1012.9
20150901001020 80 0 0.0 0.0 0.00 0.00 0.00 65 1013.2
20150901000920 79 0 0.0 0.0 0.00 0.00 0.00 65 1012.9
20150901000821 79 0 0.0 0.0 0.00 0.00 0.00 65 1012.9
20150901000720 79 0 0.0 0.0 0.00 0.00 0.00 65 1013.1
20150901000520 80 0 0.0 0.0 0.00 0.00 0.00 64 1013.0
20150901000321 80 0 0.0 0.0 0.00 0.00 0.00 64 1012.9
20150901000120 80 0 0.0 0.0 0.00 0.00 0.00 64 1012.9
20150901000020 80 270 0.0 1.0 0.00 0.00 0.00 64 1013.0
20150831235820 80 270 0.0 1.0 0.00 0.00 0.00 63 1012.8
20150831235720 80 270 0.0 1.0 0.00 0.00 0.00 64 1012.9
20150831235620 80 270 0.0 1.0 0.00 0.00 0.00 65 1012.7
20150831235520 80 270 0.0 1.0 0.00 0.00 0.00 65 1013.0
20150831235320 80 270 0.0 1.0 0.00 0.00 0.00 64 1012.9
20150831235220 80 270 0.0 1.0 0.00 0.00 0.00 64 1012.7
20150831235020 80 90 0.0 2.0 0.00 0.00 0.00 64 1012.9
20150831234820 80 109 0.0 2.0 0.00 0.00 0.00 63 1012.8
20150831234721 80 109 0.0 2.0 0.00 0.00 0.00 63 1012.9
20150831234620 80 109 0.0 2.0 0.00 0.00 0.00 63 1012.7
20150831234520 81 109 0.0 2.0 0.00 0.00 0.00 62 1012.7
20150831234420 81 109 0.0 2.0 0.00 0.00 0.00 62 1012.6
20150831234321 81 109 0.0 2.0 0.00 0.00 0.00 61 1012.8
20150831234220 81 109 0.0 2.0 0.00 0.00 0.00 61 1012.6
20150831234020 81 117 1.0 2.0 0.00 0.00 0.00 60 1012.6
20150831233920 82 120 0.0 2.0 0.00 0.00 0.00 58 1012.7
20150831233620 82 162 0.0 2.0 0.00 0.00 0.00 56 1012.6
20150831233420 83 171 0.0 3.0 0.00 0.00 0.00 57 1012.5
20150831233320 83 172 0.0 3.0 0.00 0.00 0.00 57 1012.7
20150831233220 83 172 0.0 4.0 0.00 0.00 0.00 57 1012.6
20150831233120 83 165 0.0 4.0 0.00 0.00 0.00 57 1012.6
20150831233021 84 166 1.0 4.0 0.00 0.00 0.00 56 1012.7
20150831232920 84 169 1.0 4.0 0.00 0.00 0.00 58 1012.7
20150831232420 84 159 1.0 4.0 0.00 0.00 0.00 54 1012.7
20150831232320 85 156 1.0 4.0 0.00 0.00 0.00 52 1012.7
20150831232220 85 152 3.0 4.0 0.00 0.00 0.00 55 1012.6
20150831232020 85 160 0.0 2.0 0.00 0.00 0.00 54 1012.7
20150831231720 87 197 0.0 2.0 0.00 0.00 0.00 51 1012.7
20150831231520 89 261 0.0 2.0 0.00 0.00 0.00 49 1012.7
20150831231120 88 192 0.0 3.0 0.00 0.00 0.00 50 1012.6
20150831230920 89 188 0.0 3.0 0.00 0.00 0.00 48 1012.9
20150831230720 88 165 0.0 3.0 0.00 0.00 0.00 51 1012.8
20150831230320 86 164 1.0 3.0 0.00 0.00 0.00 51 1012.7
20150831230220 85 159 1.0 3.0 0.00 0.00 0.00 51 1012.6
20150831230020 86 152 1.0 3.0 0.00 0.00 0.00 52 1012.8
20150831225620 86 164 1.0 3.0 0.00 0.00 0.00 49 1012.7
20150831225520 87 159 2.0 3.0 0.00 0.00 0.00 52 1012.6
20150831225419 86 151 1.0 3.0 0.00 0.00 0.00 49 1012.7
20150831225321 87 142 3.0 3.0 0.00 0.00 0.00 48 1012.5
20150831225220 88 138 3.0 4.0 0.00 0.00 0.00 49 1012.5
20150831225120 87 144 1.0 4.0 0.00 0.00 0.00 50 1012.7
20150831224921 87 130 1.0 4.0 0.00 0.00 0.00 51 1012.7
20150831224720 87 131 0.0 5.0 0.00 0.00 0.00 52 1012.6
20150831224420 85 132 3.0 5.0 0.00 0.00 0.00 53 1012.8
20150831224320 85 134 1.0 6.0 0.00 0.00 0.00 51 1012.7
20150831224020 85 137 2.0 6.0 0.00 0.00 0.00 53 1012.6
20150831223920 86 138 3.0 6.0 0.00 0.00 0.00 52 1012.6
20150831223820 86 126 2.0 6.0 0.00 0.00 0.00 52 1012.6
20150831223720 86 122 2.0 6.0 0.00 0.00 0.00 53 1012.7
20150831223620 86 123 1.0 6.0 0.00 0.00 0.00 52 1012.6
20150831223520 86 124 2.0 8.0 0.00 0.00 0.00 52 1012.5
20150831223420 85 121 3.0 8.0 0.00 0.00 0.00 52 1012.6
20150831223220 85 117 4.0 8.0 0.00 0.00 0.00 53 1012.4
20150831223020 85 116 1.0 8.0 0.00 0.00 0.00 52 1012.6
20150831222720 86 133 3.0 8.0 0.00 0.00 0.00 51 1012.6
20150831222620 86 138 3.0 8.0 0.00 0.00 0.00 50 1012.6
20150831222520 86 148 5.0 8.0 0.00 0.00 0.00 49 1012.7
20150831222420 86 154 2.0 5.0 0.00 0.00 0.00 49 1012.6
20150831222320 86 156 1.0 5.0 0.00 0.00 0.00 51 1012.5
20150831222220 87 161 3.0 5.0 0.00 0.00 0.00 48 1012.6
20150831222121 87 164 3.0 5.0 0.00 0.00 0.00 50 1012.5
20150831221920 87 160 3.0 5.0 0.00 0.00 0.00 48 1012.7
20150831221820 87 155 3.0 5.0 0.00 0.00 0.00 48 1012.5
20150831221720 87 153 3.0 5.0 0.00 0.00 0.00 50 1012.6
20150831221620 88 153 1.0 5.0 0.00 0.00 0.00 46 1012.6
20150831221520 89 153 2.0 5.0 0.00 0.00 0.00 47 1012.5
20150831221320 87 157 1.0 5.0 0.00 0.00 0.00 50 1012.4
20150831221221 87 160 1.0 5.0 0.00 0.00 0.00 49 1012.5
20150831221120 87 160 2.0 5.0 0.00 0.00 0.00 49 1012.7
20150831221020 87 167 2.0 5.0 0.00 0.00 0.00 49 1012.6
20150831220920 86 171 1.0 5.0 0.00 0.00 0.00 48 1012.7
20150831220820 86 169 3.0 5.0 0.00 0.00 0.00 49 1012.6
20150831220719 87 169 2.0 5.0 0.00 0.00 0.00 51 1012.8
20150831220620 87 161 2.0 5.0 0.00 0.00 0.00 51 1012.8
20150831220520 87 151 2.0 5.0 0.00 0.00 0.00 51 1012.8
20150831220420 87 143 2.0 5.0 0.00 0.00 0.00 51 1012.7
20150831220320 87 141 2.0 5.0 0.00 0.00 0.00 51 1012.7
20150831220120 87 139 2.0 5.0 0.00 0.00 0.00 51 1012.6
20150831220020 87 133 2.0 5.0 0.00 0.00 0.00 51 1012.7
20150831215920 87 124 2.0 5.0 0.00 0.00 0.00 49 1012.7
20150831215820 87 124 3.0 5.0 0.00 0.00 0.00 49 1012.7
20150831215620 87 123 3.0 5.0 0.00 0.00 0.00 48 1012.8
20150831215520 88 132 1.0 5.0 0.00 0.00 0.00 48 1012.7
20150831215419 88 131 1.0 5.0 0.00 0.00 0.00 48 1012.7
20150831215220 87 131 1.0 5.0 0.00 0.00 0.00 48 1012.5
20150831215120 87 126 1.0 5.0 0.00 0.00 0.00 48 1012.6
20150831214921 88 134 3.0 5.0 0.00 0.00 0.00 49 1012.6
20150831214720 86 136 2.0 5.0 0.00 0.00 0.00 49 1012.7
20150831214620 87 142 3.0 7.0 0.00 0.00 0.00 48 1012.5
20150831214521 86 142 3.0 7.0 0.00 0.00 0.00 48 1012.7
20150831214420 86 139 3.0 7.0 0.00 0.00 0.00 48 1012.7
20150831214320 87 132 3.0 7.0 0.00 0.00 0.00 48 1012.6
20150831214220 87 132 3.0 7.0 0.00 0.00 0.00 47 1012.8
20150831214121 86 135 3.0 7.0 0.00 0.00 0.00 49 1012.5
20150831214020 87 132 3.0 7.0 0.00 0.00 0.00 49 1012.6
20150831213919 87 131 1.0 7.0 0.00 0.00 0.00 51 1012.8
20150831213620 86 121 6.0 7.0 0.00 0.00 0.00 50 1012.6
20150831213520 86 123 3.0 7.0 0.00 0.00 0.00 47 1012.7
20150831213420 86 129 4.0 7.0 0.00 0.00 0.00 48 1012.7
20150831213220 88 136 2.0 5.0 0.00 0.00 0.00 48 1012.5
20150831213020 90 128 0.0 5.0 0.00 0.00 0.00 47 1012.6
20150831212920 89 136 0.0 5.0 0.00 0.00 0.00 49 1012.6
20150831212720 87 142 1.0 5.0 0.00 0.00 0.00 47 1012.6
20150831212619 87 140 1.0 5.0 0.00 0.01 0.00 48 1012.8
20150831212320 86 135 2.0 5.0 0.00 0.02 0.00 48 1012.9
20150831212120 87 151 3.0 5.0 0.00 0.02 0.00 50 1012.7
20150831212020 87 151 3.0 5.0 0.00 0.02 0.00 50 1012.7
20150831211920 87 148 1.0 5.0 0.00 0.02 0.00 49 1012.8
20150831211520 87 171 1.0 5.0 0.00 0.06 0.00 51 1012.8
20150831211220 87 174 1.0 5.0 0.00 0.07 0.00 52 1012.9
20150831210920 85 170 3.0 5.0 0.00 0.07 0.00 49 1012.9
20150831210820 86 162 2.0 8.0 0.00 0.07 0.00 49 1012.8
20150831210720 87 155 3.0 8.0 0.00 0.07 0.00 49 1012.7
20150831210620 88 156 3.0 8.0 0.00 0.07 0.00 50 1012.9
20150831210320 88 166 1.0 8.0 0.00 0.07 0.00 53 1012.8
20150831210120 87 165 2.0 8.0 0.00 0.07 0.00 50 1012.9
20150831210021 87 167 3.0 8.0 0.00 0.07 0.00 53 1012.9
20150831205920 87 179 5.0 8.0 0.00 0.07 0.00 52 1012.8
20150831205620 88 201 2.0 7.0 0.00 0.07 0.00 48 1012.9
20150831205520 87 198 1.0 7.0 0.00 0.07 0.00 48 1012.7
20150831205220 87 159 3.0 7.0 0.00 0.07 0.00 49 1012.9
20150831205020 87 152 2.0 7.0 0.00 0.07 0.00 47 1013.0
20150831204920 87 132 4.0 7.0 0.00 0.07 0.00 48 1013.0
20150831204820 87 116 3.0 5.0 0.00 0.07 0.00 49 1012.9
20150831204720 88 112 2.0 5.0 0.00 0.07 0.00 50 1013.1
20150831204620 88 105 3.0 5.0 0.00 0.07 0.00 51 1012.9
20150831204520 87 110 1.0 5.0 0.00 0.07 0.00 50 1013.0
20150831204420 88 117 3.0 5.0 0.00 0.07 0.00 48 1012.8
20150831204220 89 127 3.0 4.0 0.00 0.07 0.00 49 1012.8
20150831204020 88 118 1.0 5.0 0.00 0.07 0.00 47 1012.9
20150831203421 88 110 1.0 6.0 0.00 0.07 0.00 52 1013.0
20150831203220 86 106 0.0 7.0 0.00 0.07 0.00 51 1013.0
20150831203120 85 105 3.0 7.0 0.00 0.07 0.00 51 1013.0
20150831203020 85 106 3.0 7.0 0.00 0.07 0.00 53 1012.9
20150831202921 85 104 3.0 7.0 0.00 0.07 0.00 52 1013.2
20150831202620 85 100 4.0 7.0 0.00 0.07 0.00 51 1013.0
20150831202320 87 98 1.0 5.0 0.00 0.07 0.00 49 1013.2
20150831202220 87 97 1.0 5.0 0.00 0.07 0.00 50 1013.1
20150831202120 87 108 1.0 6.0 0.00 0.07 0.00 49 1013.1
20150831202020 87 99 1.0 6.0 0.00 0.07 0.00 50 1013.1
20150831201820 86 129 1.0 8.0 0.00 0.07 0.00 53 1013.2